Wind_Speed
102 103 102 99 97 94 91 89 87 85 84 83 83 84 84 86 89 93 97 102 105 105 104 102 99 95 91 86 82 80 78 74 70 68 64 61 58 55 54 52 50 49 47
101 99 95 91 87 85 83 82 81 80 78 77 77 77 78 79 82 86 92 97 103 107 109 107 105 101 97 92 87 84 81 79 75 72 69 65 63 60 57 54 52 50 49
96 91 87 84 82 81 80 78 76 74 72 71 70 70 71 72 75 80 86 92 98 105 110 111 110 107 103 98 93 88 85 82 80 76 73 69 67 64 60 57 55 52 50
88 84 82 81 79 77 74 72 69 67 66 65 65 65 65 65 68 73 79 86 93 101 107 113 114 111 108 104 99 93 89 85 83 80 77 74 70 67 64 61 58 55 52
82 80 80 78 76 73 71 70 68 66 64 63 63 63 63 62 63 66 72 81 88 96 103 110 115 115 113 109 104 99 93 89 86 84 81 78 74 70 68 65 61 58 55
79 78 77 75 73 72 72 72 71 70 69 67 65 64 63 62 62 63 65 73 83 91 99 107 114 117 117 114 109 104 98 93 89 87 84 81 78 74 71 68 64 61 58
77 77 75 73 73 74 74 73 72 71 71 72 71 68 66 65 64 64 63 65 74 86 95 103 112 117 119 117 113 109 103 98 93 90 87 84 82 78 74 70 67 63 60
77 76 74 74 74 75 73 70 69 67 67 69 72 73 71 69 70 67 64 64 67 76 89 99 108 115 120 120 117 113 108 102 97 93 90 87 85 81 77 73 69 66 62
76 75 74 74 76 74 69 65 61 58 55 56 63 69 74 75 73 69 68 65 65 68 79 93 103 112 118 121 119 116 112 107 101 96 93 89 87 85 81 77 72 69 66
75 74 74 75 74 70 64 58 54 50 46 43 46 54 64 72 75 73 71 68 65 65 70 83 97 108 116 120 120 118 115 110 105 100 96 92 89 87 83 79 76 72 69
74 73 74 74 71 65 57 52 49 44 39 33 31 36 47 60 69 73 71 70 67 65 65 73 88 101 112 118 120 119 117 113 109 104 99 95 91 88 84 80 78 74 71
72 72 73 72 67 58 51 46 43 39 35 29 22 20 29 43 57 67 69 68 68 66 64 66 78 93 105 115 119 120 118 115 111 107 102 97 93 89 85 82 79 76 72
70 71 73 70 63 52 45 40 37 35 33 29 22 13 14 26 41 55 63 65 65 64 64 63 70 85 98 109 116 119 118 116 113 109 104 100 95 90 86 82 79 77 75
70 71 72 69 60 49 40 35 31 29 28 26 21 15 7 13 27 41 52 59 61 62 62 63 65 76 91 102 110 116 117 116 114 111 106 102 97 91 87 83 79 77 75
69 70 72 69 60 49 39 33 28 25 23 21 18 14 8 6 16 29 41 50 55 58 60 62 63 70 83 95 103 110 116 116 115 112 108 104 99 94 89 84 79 76 75
68 69 72 69 60 50 39 31 27 23 20 17 15 11 8 6 11 21 31 41 49 54 56 60 61 65 76 88 96 103 111 115 114 112 109 105 101 96 90 84 80 76 74
68 69 71 70 62 52 40 31 27 23 21 18 15 12 9 8 10 16 25 34 42 48 53 56 59 62 70 80 90 97 105 112 114 113 111 107 103 99 92 87 80 75 73
67 68 70 70 65 55 44 33 28 24 22 19 17 15 12 11 11 15 20 28 35 42 48 52 56 59 65 73 83 91 99 107 113 113 112 109 106 102 97 90 81 77 75
66 67 69 70 67 58 48 37 31 26 23 20 17 14 12 11 12 14 18 23 29 36 42 47 51 55 59 66 75 84 93 102 110 113 112 111 108 105 101 94 86 81 76
65 66 67 69 68 62 53 42 34 29 24 19 16 12 10 9 10 12 16 20 24 30 36 41 46 50 54 61 69 78 87 98 107 112 113 112 110 108 105 100 92 85 79
64 65 66 68 69 65 56 47 37 31 25 19 15 10 7 5 7 8 11 16 21 26 31 36 40 45 50 56 65 74 82 92 102 109 112 112 110 109 107 102 99 91 84
63 64 65 66 68 66 58 50 40 33 26 20 14 10 7 3 1 4 7 12 17 21 26 31 36 40 45 52 60 69 77 87 97 107 110 111 109 108 107 103 100 94 86
61 62 63 65 66 65 60 51 42 34 26 20 15 12 8 5 3 3 5 9 13 18 22 27 31 36 42 49 57 65 73 82 92 103 108 108 107 104 104 103 101 97 87
60 60 61 62 64 64 61 54 44 35 28 21 16 13 11 8 6 5 5 7 10 14 19 24 28 33 40 47 54 61 68 75 85 96 104 105 104 102 100 99 97 94 89
59 59 60 60 62 63 61 55 47 38 30 22 17 14 12 11 9 7 6 6 7 11 16 21 26 32 39 46 53 59 64 70 78 89 99 102 100 96 94 93 92 88 85
58 58 59 59 59 60 60 56 49 41 32 23 18 15 13 12 11 9 8 7 6 9 13 18 25 31 39 46 52 56 60 65 72 82 93 98 98 93 89 88 86 84 81
Wind_Direction
304 302 301 299 297 295 292 289 286 283 279 275 272 267 263 258 254 250 244 240 236 233 232 230 229 228 227 227 227 227 227 225 222 220 219 219 218 218 218 218 218 218 218
305 305 303 301 299 296 293 290 286 283 279 275 271 267 262 257 252 247 243 238 235 232 229 228 226 225 224 224 224 225 225 224 222 220 219 218 218 217 217 216 216 217 218
309 308 306 304 301 299 295 292 287 283 278 273 269 265 261 257 251 246 242 237 233 230 227 225 224 223 222 222 222 222 222 222 221 220 218 217 217 217 216 215 215 215 216
312 311 309 307 305 302 298 293 288 282 277 271 266 261 258 255 251 246 240 236 232 229 226 223 222 221 220 220 219 219 220 220 220 219 218 216 217 217 216 215 214 214 214
316 314 313 311 308 304 300 295 289 283 276 269 263 258 253 251 249 246 241 235 231 228 225 222 220 219 219 218 218 217 218 218 218 218 217 216 216 217 217 215 215 213 213
319 318 316 313 310 307 302 296 290 283 276 268 262 255 250 247 245 244 241 237 231 228 224 221 218 217 217 217 216 216 216 216 216 216 216 216 215 216 217 216 216 214 213
322 321 319 316 314 310 305 300 293 285 277 268 261 254 248 244 242 241 240 238 234 228 224 221 218 216 215 215 215 215 214 214 214 214 214 215 215 215 216 217 217 215 214
325 324 322 321 318 315 310 305 299 291 281 271 261 252 246 241 239 237 237 237 236 231 225 221 218 215 214 214 214 213 213 213 213 212 212 213 214 214 215 216 217 216 215
328 328 327 325 323 320 317 314 309 302 291 278 265 253 244 238 237 235 235 235 235 233 228 222 218 215 214 213 212 212 212 211 211 211 211 211 212 213 214 215 216 217 216
332 331 331 330 328 326 324 323 321 316 306 291 273 257 245 237 233 231 233 233 233 233 230 225 219 216 214 212 212 211 211 210 210 210 210 210 211 212 213 215 216 217 217
335 335 335 334 333 331 330 332 333 331 326 312 289 263 246 236 231 228 229 231 231 232 231 227 221 217 214 212 211 210 210 209 209 208 209 209 209 211 213 214 216 216 217
338 339 340 339 337 336 336 338 342 346 347 341 322 281 249 235 229 225 225 227 229 230 231 228 223 219 215 213 211 210 209 209 208 207 207 208 208 209 211 213 215 216 217
342 343 344 343 342 340 339 341 349 356 1 1 357 331 264 235 227 223 222 223 225 228 230 229 225 220 217 214 211 210 208 208 207 207 206 207 207 208 210 212 215 216 218
345 346 348 347 346 343 340 340 347 356 2 6 7 1 319 242 226 222 221 220 221 224 228 229 226 221 218 215 212 210 208 207 206 206 205 206 206 206 208 210 214 217 218
348 349 351 351 349 346 341 337 340 346 353 358 2 0 345 266 230 222 221 220 220 221 224 228 227 222 218 215 213 210 208 206 205 205 205 205 205 205 207 209 212 215 218
350 352 354 354 353 350 343 336 334 333 335 338 340 339 327 285 240 226 222 220 219 220 222 226 228 223 218 215 213 211 208 205 204 204 204 204 204 204 205 207 210 213 215
353 354 356 357 356 354 349 340 333 328 322 319 315 308 294 272 246 231 224 222 220 219 220 224 227 224 218 214 212 210 208 205 203 203 203 203 203 203 203 205 208 211 213
355 356 358 359 359 358 355 347 340 329 320 312 306 297 284 266 249 234 227 223 220 219 219 222 226 224 218 213 211 210 208 205 203 202 202 202 203 203 203 204 205 209 211
357 358 359 1 1 0 359 355 348 340 330 321 311 298 283 268 251 236 227 222 220 219 218 220 223 222 217 212 209 208 207 205 203 201 201 202 202 203 203 203 205 207 209
358 360 1 2 3 3 2 1 356 349 342 335 327 312 292 269 252 237 226 221 218 217 216 217 220 220 215 210 207 205 205 204 203 201 200 201 203 203 204 205 204 206 209
360 1 3 4 5 5 5 4 2 357 352 348 343 336 321 284 252 234 223 217 214 213 213 214 216 216 212 207 203 202 203 203 203 201 200 201 203 205 206 206 206 207 210
1 2 4 6 7 7 7 6 5 4 2 1 3 4 2 349 241 209 206 203 202 204 205 207 210 210 207 203 200 200 200 202 202 201 200 201 203 206 207 208 208 209 212
2 3 5 7 8 9 9 9 9 9 10 13 18 23 31 44 73 130 171 184 189 194 197 200 204 204 201 198 196 196 198 201 202 201 200 200 202 206 209 210 210 210 212
3 4 6 7 9 10 11 11 12 14 16 21 27 33 42 55 72 97 131 156 176 187 190 194 197 198 195 193 192 193 196 199 201 202 201 200 202 205 209 211 212 213 213
3 5 7 9 10 11 12 13 14 17 20 25 32 40 49 60 69 84 106 129 153 173 183 188 190 190 188 187 188 190 193 197 200 201 202 201 201 204 208 211 212 213 213
3 5 7 9 10 12 13 15 17 18 20 26 34 43 53 62 69 78 88 102 129 156 175 183 185 184 183 182 184 187 191 195 199 201 202 201 201 203 205 209 211 212 212
Height
5644 5629 5614 5600 5588 5577 5567 5559 5552 5547 5543 5541 5541 5542 5546 5550 5558 5567 5581 5596 5611 5626 5640 5654 5668 5681 5693 5704 5716 5726 5737 5748 5758 5767 5776 5784 5791 5798 5804 5811 5818 5824 5831
5618 5602 5587 5574 5561 5550 5540 5532 5524 5519 5515 5513 5512 5512 5515 5519 5526 5533 5545 5560 5575 5591 5608 5624 5640 5655 5670 5683 5696 5708 5720 5731 5742 5753 5763 5772 5780 5787 5794 5802 5809 5816 5823
5593 5577 5562 5548 5536 5525 5514 5505 5497 5492 5488 5486 5485 5485 5487 5490 5496 5503 5512 5526 5541 5556 5574 5592 5610 5628 5645 5660 5675 5689 5701 5714 5726 5738 5749 5759 5768 5776 5784 5792 5799 5807 5814
5570 5554 5539 5525 5512 5500 5489 5479 5472 5466 5463 5460 5460 5461 5462 5465 5469 5475 5484 5495 5508 5523 5540 5559 5580 5600 5619 5636 5652 5668 5682 5696 5709 5722 5735 5746 5755 5764 5773 5781 5789 5797 5805
5550 5534 5518 5504 5490 5477 5465 5456 5448 5442 5438 5436 5436 5437 5439 5443 5447 5451 5458 5467 5479 5492 5508 5528 5549 5571 5591 5610 5628 5645 5662 5677 5691 5706 5719 5731 5742 5752 5762 5770 5779 5787 5795
5532 5515 5499 5484 5469 5456 5443 5431 5422 5415 5411 5409 5410 5413 5417 5421 5425 5429 5435 5442 5452 5463 5479 5498 5519 5540 5562 5583 5604 5623 5641 5657 5673 5688 5703 5717 5729 5740 5750 5759 5769 5777 5785
5514 5498 5481 5465 5449 5434 5419 5405 5393 5385 5380 5378 5381 5386 5393 5399 5403 5408 5414 5421 5428 5438 5453 5471 5490 5511 5534 5557 5579 5599 5619 5637 5654 5670 5686 5701 5715 5727 5737 5748 5758 5767 5776
5498 5481 5463 5447 5429 5412 5395 5378 5365 5354 5348 5345 5346 5354 5365 5375 5378 5387 5395 5401 5407 5417 5430 5445 5463 5484 5506 5530 5554 5576 5597 5616 5635 5652 5668 5684 5699 5713 5725 5736 5747 5757 5766
5483 5465 5447 5428 5409 5389 5371 5355 5339 5326 5318 5314 5313 5319 5332 5345 5354 5368 5374 5382 5389 5398 5408 5422 5439 5458 5480 5504 5529 5552 5573 5595 5615 5634 5651 5667 5683 5698 5711 5723 5735 5746 5756
5470 5451 5433 5413 5392 5371 5353 5337 5323 5309 5298 5291 5288 5291 5300 5314 5330 5345 5354 5363 5373 5381 5390 5402 5417 5435 5456 5479 5504 5528 5551 5573 5595 5615 5633 5651 5668 5684 5698 5711 5723 5735 5746
5458 5439 5420 5399 5378 5359 5342 5327 5313 5299 5287 5277 5272 5272 5278 5290 5305 5322 5335 5345 5355 5365 5374 5385 5398 5414 5433 5456 5480 5504 5528 5552 5575 5596 5616 5635 5652 5669 5685 5699 5711 5723 5735
5449 5429 5409 5388 5368 5349 5335 5321 5308 5295 5283 5273 5266 5264 5267 5275 5286 5301 5316 5327 5339 5350 5360 5370 5382 5395 5413 5434 5457 5482 5507 5532 5555 5578 5600 5620 5638 5655 5671 5686 5699 5712 5724
5441 5422 5402 5381 5361 5344 5330 5318 5307 5296 5285 5276 5268 5264 5264 5268 5275 5287 5301 5313 5325 5335 5346 5356 5366 5378 5394 5413 5436 5461 5488 5513 5537 5561 5584 5605 5624 5642 5659 5674 5687 5700 5712
5434 5415 5395 5374 5355 5339 5326 5316 5307 5297 5289 5281 5274 5269 5267 5268 5272 5279 5290 5301 5313 5323 5333 5342 5352 5363 5377 5395 5418 5444 5469 5494 5519 5544 5568 5590 5611 5629 5646 5661 5675 5688 5700
5427 5409 5389 5369 5351 5335 5323 5313 5306 5298 5291 5284 5279 5274 5271 5270 5272 5276 5282 5291 5302 5312 5322 5330 5339 5349 5363 5381 5402 5425 5451 5477 5504 5529 5553 5576 5597 5616 5633 5649 5664 5676 5688
5423 5405 5386 5366 5348 5332 5320 5310 5303 5296 5290 5285 5280 5276 5273 5271 5271 5274 5278 5284 5293 5302 5312 5319 5328 5338 5351 5369 5388 5410 5436 5463 5490 5515 5539 5562 5583 5602 5621 5637 5652 5665 5676
5420 5402 5384 5365 5347 5331 5318 5307 5300 5293 5288 5283 5278 5274 5272 5270 5270 5272 5275 5279 5286 5294 5303 5311 5318 5329 5342 5358 5377 5399 5423 5448 5474 5500 5524 5547 5568 5589 5607 5624 5639 5653 5664
5418 5400 5382 5364 5346 5330 5316 5305 5297 5290 5284 5279 5275 5272 5270 5269 5268 5269 5272 5275 5281 5288 5296 5303 5311 5321 5334 5349 5368 5389 5411 5435 5460 5485 5510 5533 5554 5574 5593 5611 5626 5640 5652
5417 5400 5382 5364 5346 5329 5315 5303 5294 5287 5281 5276 5272 5269 5267 5266 5266 5267 5269 5272 5276 5282 5290 5297 5305 5315 5328 5343 5360 5380 5401 5423 5447 5472 5496 5519 5540 5560 5579 5596 5613 5627 5640
5417 5400 5383 5365 5347 5330 5315 5302 5293 5285 5278 5273 5269 5266 5264 5263 5263 5264 5266 5269 5273 5278 5285 5292 5300 5310 5322 5336 5352 5371 5391 5412 5435 5459 5482 5506 5527 5546 5565 5584 5601 5615 5628
5417 5401 5384 5366 5349 5331 5316 5303 5293 5285 5277 5272 5267 5264 5263 5262 5262 5263 5264 5267 5270 5275 5281 5288 5296 5305 5317 5331 5346 5363 5382 5403 5425 5448 5471 5494 5516 5535 5551 5570 5587 5602 5616
5418 5402 5386 5370 5353 5335 5320 5306 5295 5286 5279 5273 5269 5266 5264 5263 5262 5263 5264 5266 5269 5273 5279 5285 5293 5303 5314 5327 5342 5359 5377 5395 5418 5439 5461 5483 5503 5522 5539 5557 5575 5591 5606
5420 5405 5389 5373 5357 5341 5325 5311 5299 5290 5282 5277 5272 5269 5267 5265 5265 5265 5266 5268 5270 5274 5279 5285 5292 5301 5312 5324 5339 5355 5371 5389 5410 5431 5453 5474 5495 5513 5529 5546 5564 5581 5597
5422 5408 5393 5377 5362 5347 5331 5317 5305 5295 5287 5282 5277 5274 5271 5270 5269 5269 5270 5271 5273 5276 5279 5285 5292 5300 5310 5323 5337 5352 5368 5386 5405 5425 5445 5467 5486 5505 5521 5537 5554 5572 5589
5425 5411 5396 5382 5367 5352 5338 5324 5311 5301 5293 5287 5283 5280 5277 5275 5274 5274 5274 5275 5276 5278 5282 5286 5292 5300 5310 5322 5335 5350 5365 5381 5399 5418 5437 5458 5478 5496 5513 5528 5545 5562 5579
5426 5412 5399 5386 5373 5359 5345 5331 5318 5308 5300 5294 5289 5286 5283 5281 5280 5279 5279 5280 5281 5282 5285 5288 5294 5301 5311 5322 5335 5349 5363 5378 5394 5412 5430 5450 5470 5487 5504 5519 5535 5553 5570